Location: Colbitzow
(53.3359°N, 14.4391°E)
Time: 23:59:22
(UTC+00:00)

Daily predictions for brighter satellites

Satellite Brightness Start Highest point End
(mag) Time Altitude Azimuth Time Altitude Azimuth Time Altitude Azimuth
Spot 2 Rocket 3.7 19:47:29 10° SSE 19:52:33 65° ENE 19:57:38 10° N
OBJECT-B 3.9 19:52:41 10° WSW 19:53:56 12° W 19:55:11 10° WNW
ATLAS 5 CENTAUR R/B 3.8 19:50:52 10° NW 19:54:55 27° N 19:59:36 10° ENE
Cosmos 2278 3.9 19:50:06 10° NW 19:55:46 77° WSW 20:01:26 10° SSE
Cosmos 1833 Rocket 2.8 19:52:28 10° SSW 19:58:07 84° WNW 20:03:49 10° NNE
Cosmos 2082 Rocket 2.3 19:52:41 10° SSW 19:58:10 57° ESE 20:03:44 10° NE
RESURS DK-1 2.7 19:54:39 10° S 19:58:37 45° ESE 20:02:37 10° NE
Cosmos 1842 Rocket 4.4 19:54:36 10° NNW 19:58:59 52° W 20:03:19 10° S
Cosmos 1151 Rocket 4.1 19:57:45 10° N 20:01:40 32° ENE 20:05:35 10° SE
Cosmos 1076 Rocket 3.5 20:01:02 10° S 20:05:22 76° E 20:09:45 10° NNE
Cosmos 371 Rocket 3.4 20:01:29 10° NNW 20:06:18 75° WSW 20:11:06 10° SSE
GP-B 3.6 20:02:05 10° NNE 20:06:23 45° E 20:10:39 10° SSE
Nadezhda 4 Rocket 4.0 20:00:45 10° S 20:06:53 77° E 20:13:09 10° NNE
Cosmos 1933 3.4 20:04:07 10° N 20:08:11 65° ENE 20:12:12 10° SSE
Cosmos 2333 Rocket 3.9 20:03:44 10° NNW 20:08:20 25° NNE 20:12:55 10° E
Cosmos 2360 Rocket 3.3 20:03:48 10° NNW 20:08:58 35° NE 20:14:07 10° ESE
Cosmos 1538 Rocket 4.3 20:04:12 10° S 20:09:11 48° ESE 20:14:10 10° NE
SPOT 5 2.8 20:05:05 10° SSE 20:09:20 60° ENE 20:13:40 10° N
USA 234 3.5 20:04:33 10° E 20:11:07 76° NNE 20:17:40 10° WNW
JB-3 4.4 20:10:32 10° NNE 20:14:42 66° ESE 20:18:47 10° S
Cosmos 2098 Rocket 2.4 20:11:53 10° SSW 20:14:55 84° WNW 20:18:30 10° N
Cosmos 1606 4.0 20:12:02 10° NNW 20:15:34 38° W 20:19:06 10° SSW
BREEZE-M DEB (TANK) 4.3 20:16:19 10° SSW 20:20:34 44° SE 20:35:20 10° ENE
USA 276 2.6 20:18:09 10° W 20:21:10 40° S 20:23:48 12° ESE
Terra 2.1 20:16:54 11° SSE 20:21:28 59° ENE 20:26:09 10° N
Gbstr 26 Del rocket 2.9 20:20:45 10° W 20:24:24 52° SSW 20:28:03 12° ESE
ISS -2.9 20:21:34 10° W 20:24:41 35° SSW 20:27:10 14° SE
Cosmos 1812 3.7 20:24:11 10° N 20:27:44 34° ENE 20:30:40 14° SE
Cosmos 1980 Rocket 3.3 20:25:06 10° NW 20:30:16 39° WSW 20:35:26 10° S
COSMOS 2406 4.0 20:25:10 10° SW 20:30:47 59° NW 20:36:27 10° NNE
SPOT 1/Viking Rocket 4.4 20:25:51 10° S 20:30:51 47° W 20:35:54 10° NNW
Resurs 01 Rocket 3.6 20:28:52 10° SSW 20:32:33 25° W 20:36:16 10° NW
Cosmos 1553 Rocket 4.2 20:29:03 10° N 20:35:03 56° ENE 20:40:19 14° SSE
CZ-4C R/B 4.1 20:30:22 10° WNW 20:35:38 37° N 20:42:00 10° NE
Meteor 2-3 Rocket 3.8 20:31:46 10° S 20:37:23 71° E 20:43:06 10° NNE
Cosmos 2322 Rocket 2.3 20:33:41 10° NNW 20:39:21 73° NE 20:44:10 14° SE
Cosmos 332 Rocket 4.2 20:37:30 10° NNW 20:42:19 60° WSW 20:46:42 12° S
Gblst 52 Del rocket 4.4 20:36:58 10° WSW 20:42:54 76° S 20:49:43 10° E
NOSS 3-1 (C) 4.4 20:36:43 10° NW 20:43:32 58° NNE 20:51:40 10° ESE
Cosmos 1782 2.8 20:41:05 10° NNW 20:45:08 87° W 20:48:31 14° S
Cosmos 220 Rocket 4.1 20:49:13 10° NNW 20:53:32 71° ENE 20:56:43 18° SE
Cosmos 1633 4.5 20:50:48 10° SW 20:54:01 30° WNW 20:57:17 10° N
Cosmos 923 Rocket 4.2 20:50:37 10° S 20:55:48 54° ESE 21:01:01 10° NNE
ATLAS CENTAUR R/B 4.5 20:50:29 10° WNW 20:57:34 81° NNE 21:17:20 10° ESE
ARIANE 5 R/B 3.7 20:55:01 10° S 20:59:17 41° W 21:03:32 10° NNW
Meteor 2-6 Rocket 4.2 20:54:04 10° N 20:59:33 71° ENE 21:03:41 17° SSE
S3M 4.2 20:57:08 10° N 21:03:29 63° ENE 21:08:25 17° SSE
Cosmos 2237 4.2 20:57:58 10° NNW 21:03:43 83° ENE 21:08:05 18° SE
Cosmos 2056 Rocket 3.6 20:58:54 10° NNW 21:04:20 76° ENE 21:08:17 18° SSE
Cosmos 1174 4.3 21:01:44 10° NNW 21:04:41 37° NE 21:06:45 16° ESE
Cosmos 2219 Rocket 3.3 20:59:43 10° NNW 21:04:57 38° NE 21:10:05 10° ESE
SL-16 R/B 2.4 21:00:01 10° NW 21:05:40 64° WSW 21:10:00 17° SSE
COSMOS 2428 4.0 21:01:13 10° NNW 21:06:26 35° NE 21:11:37 10° ESE
ATLAS 2AS CENTAUR R/B 3.4 21:03:24 10° WSW 21:11:17 68° NW 21:18:53 10° NE
Cosmos 1271 Rocket 4.1 21:09:15 10° NNW 21:12:53 35° W 21:16:19 11° SSW
Cosmos 1515 Rocket 3.7 21:08:30 10° N 21:12:58 66° ENE 21:15:49 21° SSE
NOSS 3-1 (A) 4.4 21:09:33 10° NW 21:16:23 58° NNE 21:24:31 10° ESE
Meteor 1-27 Rocket 4.2 21:11:00 10° N 21:16:28 51° ENE 21:20:25 19° SE
Cosmos 292 Rocket 4.0 21:12:26 10° NNW 21:17:11 60° ENE 21:20:24 20° SE
USA 267 3.5 21:11:30 10° ENE 21:17:44 45° SE 21:23:57 10° SSW
Cosmos 2151 4.5 21:15:50 10° SW 21:19:45 36° WNW 21:23:44 10° N
ATLAS 3B R/B 4.0 21:14:55 10° WNW 21:20:54 30° WSW 21:26:36 12° S
ERS-1 Rocket 4.3 21:20:52 10° SSW 21:25:25 34° W 21:30:00 10° NNW
Cosmos 1371 Rocket 4.2 21:20:06 10° NNW 21:25:29 73° WSW 21:29:06 21° SSE
Cosmos 1809 Rocket 4.5 21:20:38 12° S 21:26:30 87° W 21:32:41 10° N
Cosmos 1766 Rocket 3.7 21:24:13 13° SSW 21:28:04 73° WNW 21:32:29 10° N
SL-27 R/B 3.4 21:27:13 26° SE 21:28:14 31° ESE 21:31:29 10° NE
Cosmos 2084 4.4 21:29:08 24° SE 21:29:48 25° ESE 21:33:14 10° ENE
Cosmos 2112 Rocket 4.0 21:26:07 15° S 21:30:34 66° ESE 21:35:49 10° NNE
NOSS 2-1 (C) 4.1 21:31:08 24° ESE 21:31:08 24° ESE 21:33:48 10° ENE
Cosmos 1680 Rocket 3.5 21:27:07 12° SSW 21:32:03 77° ESE 21:37:20 10° NNE
ALOS 2 3.6 21:31:09 19° ESE 21:33:50 37° ENE 21:37:54 10° N
Cosmos 1328 Rocket 4.3 21:29:55 10° NNW 21:34:14 49° W 21:37:21 18° SSW
Meteor 1-10 Rocket 4.2 21:29:13 10° NNW 21:34:49 83° W 21:38:35 21° S
RESURS DK-1 4.4 21:33:04 10° WSW 21:36:48 31° NW 21:40:33 10° NNE
NOSS 2-1 (D) 3.8 21:38:35 28° SE 21:38:38 28° SE 21:41:36 10° ENE
Cosmos 1151 Rocket 4.3 21:35:18 10° NNW 21:39:15 34° W 21:42:34 14° SSW
ATLAS 5 CENTAUR R/B 2.9 21:35:37 10° NW 21:40:34 49° NNE 21:46:28 10° ESE
Cosmos 2082 Rocket 3.8 21:37:21 10° WSW 21:42:34 37° NW 21:47:49 10° NNE
Spot 4 3.9 21:40:25 24° SSE 21:43:18 73° ENE 21:48:08 10° NNW
H-2A R/B 3.7 21:39:56 10° NNE 21:44:07 71° WNW 21:47:22 16° SSW
IRIDIUM 106 4.4 21:39:52 10° N 21:45:05 66° E 21:48:11 25° SSE
Meteor 2-21 Rocket 4.5 21:47:23 17° SSW 21:52:19 86° W 21:58:33 10° N
Cosmos 2360 Rocket 2.4 21:47:46 10° NW 21:53:18 60° WSW 21:56:38 24° S
Cosmos 2333 Rocket 2.2 21:47:48 10° NNW 21:53:31 80° ENE 21:57:11 23° SE
BREEZE-M DEB (TANK) 2.7 21:49:26 10° W 21:53:46 32° SSW 21:54:06 31° SSW
USA 234 3.4 21:49:36 20° SE 21:54:19 60° SW 22:00:49 10° WNW
USA 276 4.1 21:54:37 10° WSW 21:56:02 16° SW 21:56:02 16° SW
Cosmos 1833 4.5 21:53:31 23° S 21:56:58 52° ESE 22:02:35 10° NE
Terra 3.6 21:55:49 10° SW 21:59:35 23° W 22:03:23 10° NW
Cosmos 1805 Rocket 4.1 21:59:00 28° SSE 22:00:54 45° E 22:05:09 10° NNE
COSMOS 2455 3.7 21:59:06 24° SSE 22:01:28 31° ESE 22:06:40 10° NE
Cosmos 1812 4.4 22:00:09 10° NNW 22:03:24 26° W 22:05:44 15° SW
Cosmos 2285 Rocket 4.0 21:58:54 10° NNW 22:05:15 80° ENE 22:09:22 23° SSE
Cosmos 2322 3.7 22:01:10 10° NNW 22:06:56 89° WSW 22:10:25 25° SSE
Cosmos 2315 Rocket 4.0 22:03:25 10° NNW 22:09:45 85° W 22:13:44 25° S
Gbstr 26 Del rocket 4.4 22:07:51 10° W 22:10:32 19° SW 22:10:32 19° SW
Okean 1 4.2 22:07:18 10° N 22:11:09 41° ENE 22:12:56 26° SE
Cosmos 1500 Rocket 3.5 22:10:11 27° SSW 22:12:32 87° W 22:17:00 10° N
COBE Rocket 4.1 22:11:54 26° SSW 22:14:22 55° W 22:18:59 10° NNW
Cosmos 2237 Rocket 3.2 22:16:36 10° NNW 22:22:02 43° NE 22:27:13 11° ESE
Cosmos 2297 Rocket 4.2 22:20:10 10° ESE 22:22:08 12° E 22:24:20 10° ENE
Cosmos 2322 Rocket 3.7 22:18:25 10° NW 22:22:54 25° WSW 22:25:58 16° SW
NOSS 0 Rocket 4.2 22:18:29 10° NNW 22:24:44 65° NE 22:29:33 17° SE
Meteor 1-19 Rocket 4.4 22:19:18 10° N 22:25:02 67° ENE 22:28:14 26° SSE
CZ-4C R/B 4.1 22:19:52 10° NW 22:25:44 38° NNE 22:32:44 10° E
Cosmos 1743 Rocket 3.9 22:28:48 24° SSW 22:31:21 61° WNW 22:35:47 10° N
Cosmos 2266 Rocket 4.3 22:26:51 18° SSW 22:31:24 63° WNW 22:37:37 10° N
Cosmos 2227 Rocket 4.3 22:31:43 10° ESE 22:33:21 11° E 22:34:59 10° ENE
Cosmos 972 Rocket 4.0 22:31:33 27° S 22:34:29 73° ESE 22:39:31 10° NNE
NOSS 3-1 (C) 4.2 22:27:33 10° NW 22:34:44 61° SW 22:40:11 23° SSE
Cosmos 2228 Rocket 3.6 22:30:45 10° NNW 22:35:01 50° W 22:36:59 28° SSW
NOSS 2-1 (E) 2.7 22:35:21 36° SW 22:36:35 83° SE 22:40:14 10° NE
Cosmos 1452 Rocket 3.7 22:31:56 10° NNW 22:37:07 59° WSW 22:39:37 30° S
Cosmos 1500 3.9 22:44:27 33° SE 22:45:32 42° E 22:49:12 10° NNE
Meteor 2-4 Rocket 4.2 22:40:03 10° N 22:45:57 59° ENE 22:49:39 23° SE
Cosmos 1633 Rocket 3.5 22:44:58 32° SSE 22:46:36 49° E 22:50:50 10° NNE
SL-16 R/B 3.9 22:41:48 10° NNW 22:46:49 31° NE 22:51:49 10° ESE
USA 229 DEB 3.9 22:40:07 10° NW 22:47:19 72° SW 22:52:43 21° SSE
USA 229 3.9 22:40:12 10° NW 22:47:25 72° SW 22:52:51 21° SSE
Cosmos 1666 Rocket 3.7 22:46:14 34° SSE 22:47:57 60° E 22:52:21 10° NNE
Sich 1 3.0 22:46:18 33° SSW 22:48:13 85° W 22:52:36 10° N
SL-16 R/B 4.4 22:46:19 10° WNW 22:48:40 13° W 22:51:00 10° WSW
Cosmos 2219 Rocket 2.4 22:43:41 10° NW 22:49:09 54° WSW 22:51:47 29° S
COSMOS 2428 2.8 22:45:27 10° NW 22:51:06 63° WSW 22:53:57 29° S
Geosat 4.0 22:49:53 26° SE 22:52:48 89° NE 22:57:52 10° NNW
Cosmos 1602 3.7 22:56:10 40° SSW 22:57:31 84° W 23:01:25 10° N
Cosmos 2084 Rocket 3.6 22:55:52 10° NW 23:00:00 68° NE 23:03:20 16° ESE
USA 267 3.3 22:54:35 10° ENE 23:01:10 87° NNW 23:07:44 10° WSW
SL-27 R/B 4.3 23:00:41 13° WSW 23:03:18 28° NW 23:06:29 10° N
ATLAS 2AS CENTAUR R/B 4.3 22:56:14 10° WNW 23:03:30 40° N 23:10:25 10° ENE
COSMOS 2487 2.4 23:03:00 43° SW 23:03:58 75° WNW 23:07:23 10° NNE
Cosmos 1110 Rocket 4.2 23:01:40 10° NNW 23:06:56 62° WSW 23:09:25 31° S
Cosmos 1862 Rocket 3.5 23:02:52 10° NNW 23:07:17 84° W 23:09:00 36° S
NOSS 3-1 (A) 4.1 23:00:27 10° NW 23:07:38 61° SW 23:13:22 22° SSE
Cosmos 2084 3.7 23:05:36 15° WSW 23:08:57 65° NW 23:13:11 10° NE
ALOS 2 3.7 23:08:33 24° SW 23:10:13 32° W 23:14:12 10° NNW
Nadezhda 1 Rocket 4.1 23:05:26 10° N 23:11:54 85° E 23:15:44 26° SSE
Cosmos 1331 Rocket 4.2 23:10:09 10° NNW 23:15:19 59° WSW 23:17:40 31° S
Cosmos 1707 Rocket 4.3 23:13:01 10° NNW 23:17:07 41° W 23:18:45 29° SW
NOSS 2-1 (C) 4.1 23:18:24 12° WSW 23:21:12 42° NNW 23:24:45 10° NE
Cosmos 1703 Rocket 4.0 23:17:21 10° N 23:21:37 53° ENE 23:23:52 26° SE
NOSS 2-2 (D) 4.2 23:16:57 10° NW 23:21:50 84° NE 23:28:42 10° SE
Cosmos 2219 4.4 23:20:31 21° SE 23:23:03 29° ESE 23:27:55 10° NE
SL-16 R/B 3.8 23:18:37 10° ESE 23:24:08 36° ENE 23:29:43 10° N
ATLAS 5 CENTAUR R/B 2.4 23:20:07 10° NW 23:25:25 56° SW 23:28:59 25° SSE
Resurs 1-4 Rocket 4.1 23:22:01 10° NE 23:25:40 18° E 23:29:09 10° SE
NOSS 2-1 (D) 4.3 23:25:51 10° W 23:28:56 38° NNW 23:32:27 10° NE
Cosmos 1378 3.5 23:26:09 10° N 23:29:48 56° ENE 23:31:16 32° SE
Cosmos 1340 Rocket 3.4 23:32:39 32° SSE 23:34:00 45° E 23:37:47 10° NNE
Cosmos 2360 Rocket 4.3 23:34:22 10° WNW 23:36:08 11° W 23:37:54 10° WSW
Cosmos 2333 Rocket 3.6 23:32:55 10° NW 23:37:11 22° WSW 23:39:10 19° SW
USA 234 4.4 23:36:56 21° SW 23:38:17 22° SW 23:43:11 10° WNW
Cosmos 1666 2.6 23:37:08 40° S 23:38:25 84° E 23:42:19 10° NNE
Cosmos 1980 3.8 23:36:50 10° NW 23:42:27 63° WSW 23:45:31 27° S
COSMOS 2455 3.1 23:42:13 16° SW 23:47:01 70° NW 23:53:05 10° NE
SAR-Lupe-2 4.3 23:44:17 10° N 23:47:44 45° WNW 23:49:08 29° WSW
Cosmos 2181 Rocket 4.3 23:42:40 10° N 23:49:03 66° ENE 23:53:47 18° SSE
NOSS 2-2 (E) 4.4 23:46:32 10° NW 23:51:37 62° SW 23:57:55 13° SSE
Cosmos 2242 Rocket 3.5 23:50:11 10° NNW 23:54:37 79° W 23:56:38 32° S
